timestamp,surface_pressure_avg,surface_temp_avg,battery_voltage,lat,long
2019-05-09 00:00:00+00:00,305.4081,2.49,12.97,47.84626,-54.09684
2019-05-09 00:10:00+00:00,311.9946,2.3,12.81,47.84626,-54.09684
2019-05-09 00:20:00+00:00,322.033,2.1,12.97,47.84626,-54.09684
2019-05-09 00:30:00+00:00,329.813,2.2,12.97,47.84626,-54.09684
2019-05-09 00:40:00+00:00,336.3663,2.1,12.97,47.84626,-54.09684
2019-05-09 00:50:00+00:00,345.208,1.8,12.97,47.84626,-54.09684
2019-05-09 01:00:00+00:00,351.8662,1.78,12.89,47.84626,-54.09684
2019-05-09 01:10:00+00:00,353.1179,1.85,12.81,47.84626,-54.09684
2019-05-09 01:20:00+00:00,357.0046,1.8,12.89,47.84626,-54.09684
2019-05-09 01:30:00+00:00,365.7213,1.81,12.89,47.84626,-54.09684
2019-05-09 01:40:00+00:00,368.1647,2.04,12.97,47.84626,-54.09684
2019-05-09 01:50:00+00:00,366.5581,2.3,12.97,47.84626,-54.09684
2019-05-09 02:00:00+00:00,369.5496,2.2,12.89,47.84626,-54.09684
2019-05-09 02:10:00+00:00,373.5114,2.14,12.81,47.84626,-54.09684
2019-05-09 02:20:00+00:00,371.388,2.5,12.89,47.84626,-54.09684
2019-05-09 02:30:00+00:00,369.0396,2.6,12.89,47.84626,-54.09684
2019-05-09 02:40:00+00:00,371.1846,1.9,12.89,47.84626,-54.09684
2019-05-09 02:50:00+00:00,365.9679,1.8,12.89,47.84626,-54.09684
2019-05-09 03:00:00+00:00,360.4329,1.9,12.81,47.84626,-54.09684
2019-05-09 03:10:00+00:00,360.568,1.99,12.73,47.84626,-54.09684
2019-05-09 03:20:00+00:00,356.9796,2.09,12.81,47.84626,-54.09684
2019-05-09 03:30:00+00:00,350.2896,2.24,12.81,47.84626,-54.09684
2019-05-09 03:40:00+00:00,348.3097,2.38,12.89,47.84626,-54.09684
2019-05-09 03:50:00+00:00,348.6829,2.5,12.89,47.84626,-54.09684
2019-05-09 04:00:00+00:00,342.6763,2.58,12.81,47.84626,-54.09684
2019-05-09 04:10:00+00:00,336.4996,2.62,12.73,47.84626,-54.09684
2019-05-09 04:20:00+00:00,335.2497,2.7,12.81,47.84626,-54.09684
2019-05-09 04:30:00+00:00,331.9012,2.79,12.81,47.84626,-54.09684
2019-05-09 04:40:00+00:00,324.9664,2.85,12.81,47.84626,-54.09684
2019-05-09 04:50:00+00:00,317.5114,2.92,12.89,47.84626,-54.09684
2019-05-09 05:00:00+00:00,308.6764,3.1,12.81,47.84626,-54.09684
2019-05-09 05:10:00+00:00,298.173,3.1,12.73,47.84626,-54.09684
2019-05-09 05:20:00+00:00,289.3663,3.1,12.81,47.84626,-54.09684
2019-05-09 05:30:00+00:00,280.358,3.07,12.81,47.84626,-54.09684
2019-05-09 05:40:00+00:00,271.1198,3.1,12.81,47.84626,-54.09684
2019-05-09 05:50:00+00:00,262.7114,3.1,12.81,47.84626,-54.09684
2019-05-09 06:00:00+00:00,253.6631,3.0,12.73,47.84626,-54.09684
2019-05-09 06:10:00+00:00,242.7881,3.07,12.65,47.84626,-54.09684
2019-05-09 06:20:00+00:00,233.6764,3.0,12.73,47.84626,-54.09684
2019-05-09 06:30:00+00:00,226.4865,3.0,12.73,47.84626,-54.09684
2019-05-09 06:40:00+00:00,219.3464,3.0,12.81,47.84626,-54.09684
2019-05-09 06:50:00+00:00,210.5681,3.02,12.81,47.84626,-54.09684
2019-05-09 07:00:00+00:00,203.6931,3.05,12.73,47.84626,-54.09684
2019-05-09 07:10:00+00:00,199.5614,3.08,12.65,47.84626,-54.09684
2019-05-09 07:20:00+00:00,197.2248,3.1,12.73,47.84626,-54.09684
2019-05-09 07:30:00+00:00,194.6348,3.2,12.73,47.84626,-54.09684
2019-05-09 07:40:00+00:00,191.6248,3.2,12.73,47.84626,-54.09684
2019-05-09 07:50:00+00:00,191.6931,3.2,12.73,47.84626,-54.09684
2019-05-09 08:00:00+00:00,193.4598,3.19,12.73,47.84626,-54.09684
2019-05-09 08:10:00+00:00,193.4298,3.2,12.65,47.84626,-54.09684
2019-05-09 08:20:00+00:00,191.0064,3.2,12.73,47.84626,-54.09684
2019-05-09 08:30:00+00:00,188.9949,3.0,12.73,47.84626,-54.09684
2019-05-09 08:40:00+00:00,190.2498,2.9,12.73,47.84626,-54.09684
2019-05-09 08:50:00+00:00,192.4232,2.94,12.73,47.84626,-54.09684
2019-05-09 09:00:00+00:00,191.6764,3.07,12.73,47.84626,-54.09684
2019-05-09 09:10:00+00:00,193.2131,3.07,12.65,47.84626,-54.09684
2019-05-09 09:20:00+00:00,200.5531,3.1,12.73,47.84626,-54.09684
2019-05-09 09:30:00+00:00,204.3548,2.9,12.81,47.84626,-54.09684
2019-05-09 09:40:00+00:00,203.6714,2.9,12.89,47.84626,-54.09684
2019-05-09 09:50:00+00:00,206.8297,3.05,12.97,47.84626,-54.09684
2019-05-09 10:00:00+00:00,212.9364,3.1,12.97,47.84626,-54.09684
2019-05-09 10:10:00+00:00,215.8748,3.1,12.97,47.84626,-54.09684
2019-05-09 10:20:00+00:00,215.5147,3.1,13.13,47.84626,-54.09684
2019-05-09 10:30:00+00:00,218.6364,3.1,13.21,47.84626,-54.09684
2019-05-09 10:40:00+00:00,225.4865,3.1,13.29,47.84626,-54.09684
2019-05-09 10:50:00+00:00,229.0481,3.0,13.44,47.84626,-54.09684
2019-05-09 11:00:00+00:00,230.6248,2.92,13.44,47.84626,-54.09684
2019-05-09 11:10:00+00:00,233.8381,2.9,13.44,47.84626,-54.09684
2019-05-09 11:20:00+00:00,239.3981,2.9,13.53,47.84626,-54.09684
2019-05-09 11:30:00+00:00,245.2564,2.93,13.6,47.84626,-54.09684
2019-05-09 11:40:00+00:00,249.8181,3.0,13.76,47.84626,-54.09684
2019-05-09 11:50:00+00:00,253.2831,2.9,14.0,47.84626,-54.09684
2019-05-09 12:00:00+00:00,256.8765,2.9,14.08,47.84626,-54.09684
2019-05-09 12:10:00+00:00,262.4198,3.04,14.24,47.84626,-54.09684
2019-05-09 12:20:00+00:00,267.2247,3.08,14.56,47.84626,-54.09684
2019-05-09 12:30:00+00:00,271.9547,3.15,14.48,47.84626,-54.09684
2019-05-09 12:40:00+00:00,279.4947,3.2,14.4,47.84626,-54.09684
2019-05-09 12:50:00+00:00,287.9431,2.8,14.4,47.84626,-54.09684
2019-05-09 13:00:00+00:00,294.9446,2.8,14.4,47.84626,-54.09684
2019-05-09 13:10:00+00:00,299.6014,2.8,14.48,47.84626,-54.09684
2019-05-09 13:20:00+00:00,306.5447,2.75,14.64,47.84626,-54.09684
2019-05-09 13:30:00+00:00,313.778,2.71,14.64,47.84626,-54.09684
2019-05-09 13:40:00+00:00,318.218,2.7,14.64,47.84626,-54.09684
2019-05-09 13:50:00+00:00,317.1929,2.7,14.64,47.84626,-54.09684
2019-05-09 14:00:00+00:00,320.7164,2.7,14.48,47.84626,-54.09684
2019-05-09 14:10:00+00:00,325.3813,2.66,14.48,47.84626,-54.09684
2019-05-09 14:20:00+00:00,326.148,2.63,14.64,47.84626,-54.09684
2019-05-09 14:30:00+00:00,323.2113,2.6,14.64,47.84626,-54.09684
2019-05-09 14:40:00+00:00,325.6147,2.5,14.64,47.84626,-54.09684
2019-05-09 14:50:00+00:00,329.043,2.4,14.72,47.84626,-54.09684
2019-05-09 15:00:00+00:00,327.0947,2.3,14.64,47.84626,-54.09684
2019-05-09 15:10:00+00:00,324.2347,2.2,14.56,47.84626,-54.09684
2019-05-09 15:20:00+00:00,324.2847,2.15,14.64,47.84626,-54.09684
2019-05-09 15:30:00+00:00,321.4062,2.12,14.56,47.84626,-54.09684
2019-05-09 15:40:00+00:00,317.3513,2.1,14.56,47.84626,-54.09684
2019-05-09 15:50:00+00:00,316.1396,2.1,14.56,47.84626,-54.09684
2019-05-09 16:00:00+00:00,316.588,2.1,14.64,47.84626,-54.09684
2019-05-09 16:10:00+00:00,312.7347,2.1,14.56,47.84626,-54.09684
2019-05-09 16:20:00+00:00,307.8263,2.1,14.64,47.84626,-54.09684
2019-05-09 16:30:00+00:00,305.6063,2.1,14.64,47.84626,-54.09684
2019-05-09 16:40:00+00:00,303.053,2.18,14.56,47.84626,-54.09684
2019-05-09 16:50:00+00:00,297.5714,2.34,14.56,47.84626,-54.09684
2019-05-09 17:00:00+00:00,294.3897,2.5,14.56,47.84626,-54.09684
2019-05-09 17:10:00+00:00,289.9681,2.55,14.48,47.84626,-54.09684
2019-05-09 17:20:00+00:00,281.0347,2.6,14.64,47.84626,-54.09684
2019-05-09 17:30:00+00:00,273.1931,3.35,14.64,47.84626,-54.09684
2019-05-09 17:40:00+00:00,268.9597,3.38,14.64,47.84626,-54.09684
2019-05-09 17:50:00+00:00,260.1798,2.86,14.56,47.84626,-54.09684
2019-05-09 18:00:00+00:00,247.9814,2.72,14.48,47.84626,-54.09684
2019-05-09 18:10:00+00:00,239.2948,3.08,14.4,47.84626,-54.09684
2019-05-09 18:20:00+00:00,232.2481,2.8,14.48,47.84626,-54.09684
2019-05-09 18:30:00+00:00,223.7698,2.75,14.56,47.84626,-54.09684
2019-05-09 18:40:00+00:00,214.0881,2.8,14.56,47.84626,-54.09684
2019-05-09 18:50:00+00:00,208.0981,2.65,14.48,47.84626,-54.09684
2019-05-09 19:00:00+00:00,201.0864,2.64,14.48,47.84626,-54.09684
2019-05-09 19:10:00+00:00,194.9398,3.5,14.4,47.84626,-54.09684
2019-05-09 19:20:00+00:00,191.8781,3.4,14.48,47.84626,-54.09684
2019-05-09 19:30:00+00:00,187.8931,3.4,14.48,47.84626,-54.09684
2019-05-09 19:40:00+00:00,183.2164,3.0,14.4,47.84626,-54.09684
2019-05-09 19:50:00+00:00,182.6215,3.0,14.4,47.84626,-54.09684
2019-05-09 20:00:00+00:00,181.9431,3.0,14.32,47.84626,-54.09684
2019-05-09 20:10:00+00:00,180.5965,3.0,14.16,47.84626,-54.09684
2019-05-09 20:20:00+00:00,184.8282,3.0,14.16,47.84626,-54.09684
2019-05-09 20:30:00+00:00,190.7081,3.29,14.16,47.84626,-54.09684
2019-05-09 20:40:00+00:00,191.1631,3.61,14.16,47.84626,-54.09684
2019-05-09 20:50:00+00:00,191.8131,3.6,14.16,47.84626,-54.09684
2019-05-09 21:00:00+00:00,199.5331,3.4,14.08,47.84626,-54.09684
2019-05-09 21:10:00+00:00,206.5248,3.03,13.92,47.84626,-54.09684
2019-05-09 21:20:00+00:00,206.9431,2.89,14.0,47.84626,-54.09684
2019-05-09 21:30:00+00:00,207.9781,2.8,13.92,47.84626,-54.09684
2019-05-09 21:40:00+00:00,213.0464,2.8,13.92,47.84626,-54.09684
2019-05-09 21:50:00+00:00,217.5931,2.8,13.92,47.84626,-54.09684
2019-05-09 22:00:00+00:00,217.9931,2.8,13.76,47.84626,-54.09684
2019-05-09 22:10:00+00:00,221.5465,2.88,13.6,47.84626,-54.09684
2019-05-09 22:20:00+00:00,226.4564,3.2,13.6,47.84626,-54.09684
2019-05-09 22:30:00+00:00,229.4631,3.2,13.53,47.84626,-54.09684
2019-05-09 22:40:00+00:00,232.9598,3.08,13.53,47.84626,-54.09684
2019-05-09 22:50:00+00:00,237.9398,2.92,13.44,47.84626,-54.09684
2019-05-09 23:00:00+00:00,241.9114,3.07,13.37,47.84626,-54.09684
2019-05-09 23:10:00+00:00,245.2597,3.2,13.21,47.84626,-54.09684
2019-05-09 23:20:00+00:00,250.8431,3.2,13.21,47.84626,-54.09684
2019-05-09 23:30:00+00:00,256.9648,3.0,13.21,47.84626,-54.09684
2019-05-09 23:40:00+00:00,261.928,3.0,13.21,47.84626,-54.09684
2019-05-09 23:50:00+00:00,265.3664,2.9,13.13,47.84626,-54.09684
